sat.trackr.live / text

‹ back to catalog

TIANLIAN 1-04

NORAD 41869 · 2016-072A

PAYLOAD ACTIVE UNKNOWN

§ Identity

Operator
Country
PRC
Launch date
2016-11-22
Launch site
XICLF
Launch vehicle
Mass (kg)
RCS (m²)
21.95

Purposes: comms

External: N2YO · Heavens-Above · Gunter

§ Orbital elements

Epoch: 2026-05-25T02:52:12.838656Z

Period
1,436.09 min
Inclination
0.8089°
Eccentricity
0.0041119
Mean motion
1.00272286 rev/d
Perigee alt
35,613.1 km
Apogee alt
35,959.8 km
Semi-major
42,164.6 km
B*
0.0000e+0
RAAN
82.9963°
Arg perigee
90.6429°
Mean anomaly
288.9020°
Rev number
3,507

§ Raw data

TIANLIAN 1-041 41869U 16072A   26145.11959304  .00000029  00000+0  00000+0 0  99932 41869   0.8089  82.9963 0041119  90.6429 288.9020  1.00272286 35070

JSON: /api/v1/satellites/41869 · /tle

For live sub-satellite position, see the globe view (requires WebGL).

§ Visibility from observer

Set your observer location to see the next 7 days of passes ≥ 10°. The values pass through the URL so the page stays shareable.

No JS? Fill the form by hand. The geolocation button needs JavaScript.